Regional Weather Roundup
Issued by NWS Cleveland, OH

Home | Current Version | Previous Version | Graphics & Text | Print | Product List | Glossary On
Versions: 1 2 3 4 5 6 7 8 9 10 11 12 13 14 15 16 17 18 19 20 21 22 23 24 25 26 27 28 29 30 31 32 33 34 35 36 37 38 39 40 41 42 43 44 45 46 47 48 49 50
000
ASUS41 KCLE 262102
RWRCLE
OHIO REGIONAL WEATHER ROUNDUP
NATIONAL WEATHER SERVICE CLEVELAND, OH
400 PM EST SUN FEB 26 2017

NOTE: "FAIR" INDICATES FEW OR NO CLOUDS BELOW 12,000 FEET WITH NO
SIGNIFICANT WEATHER AND/OR OBSTRUCTIONS TO VISIBILITY.

OHZ001>008-015>018-024>027-034-035-043-044-262200-
   NORTHWEST OHIO

CITY           SKY/WX    TMP DP  RH WIND       PRES   REMARKS
DEFIANCE       PTSUNNY   42  20  41 SW17G26   30.03F
FINDLAY        SUNNY     44  20  38 SW21G26   30.06F
TOLEDO EXPRESS MOSUNNY   42  18  37 SW16G25   30.02F
TOLEDO EXEC    SUNNY     43  19  38 SW25G31   30.04F
LIMA           SUNNY     42  19  39 SW15G28   30.07S
$$

OHZ009>014-019>023-028>033-038-089-262200-
   NORTHEAST OHIO

CITY           SKY/WX    TMP DP  RH WIND       PRES   REMARKS
CLE-HOPKINS    SUNNY     42  17  36 SW15      30.09F
CLE-LAKEFRONT  SUNNY     42  17  36 S15G21    30.07F
CUY CO. ARPT   SUNNY     41  19  42 SW10G20   30.08F
LORAIN-ELYRIA  SUNNY     40  19  43 W17G24    30.08F
ASHTABULA      SUNNY     37  19  48 S14G20    30.08F
AKRON-CANTON   MOSUNNY   40  17  39 SW15G22   30.09F
WOOSTER        SUNNY     39  20  46 SW15      30.09F
MANSFIELD      SUNNY     40  21  46 S15G25    30.08S
YOUNGSTOWN     MOSUNNY   37  16  42 SW14      30.08F
$$

OHZ042-051>053-060>062-070>072-077>081-262200-
  SOUTHWEST OHIO

CITY           SKY/WX    TMP DP  RH WIND       PRES   REMARKS
CINC-COVINGTON MOSUNNY   46  14  27 SW12      30.14S
CINC-LUNKEN    SUNNY     48  18  30 S9        30.16F
HAMILTON       SUNNY     48  16  27 SW8       30.15F
DAYTON         PTSUNNY   42  15  33 SW18      30.12F
WRIGHT-PAT AFB SUNNY     45  12  26 S15G22    30.12F
DAYTON GENERAL SUNNY     45  14  28 SW15      30.12F
WILMINGTON     SUNNY     43  18  36 SW15      30.13F
$$

OHZ036-037-039>041-045>050-054>059-063>069-073>076-082>088-262200-
  CENTRAL AND SOUTHEAST OHIO

CITY           SKY/WX    TMP DP  RH WIND       PRES   REMARKS
COLUMBUS       MOSUNNY   44  18  35 SW13      30.14F
OSU AIRPORT    SUNNY     43  19  38 SW12G24   30.13S
BOLTON FIELD   SUNNY     43  21  42 SW16      30.15F
RICKENBACK AFB SUNNY     42  17  35 SW8G22    30.15S
NEWARK         SUNNY     42  20  41 SW13      30.14S
MARION         SUNNY     42  18  37 SW15G26   30.11R
LANCASTER      SUNNY     44  18  35 S12       30.16S
ZANESVILLE     SUNNY     43  16  33 SW9       30.14F
NEW PHILLY     NOT AVBL
$$




USA.gov is the U.S. government's official web portal to all federal, state and local government web resources and services.